Location: Albany
(35.0000°S, 118.0000°E)
Time: 00:19:19
(UTC-04:00)

Cosmos 1346 Rocket - Visible Passes

Search period start: 31 August 2016 00:00
Search period end: 10 September 2016 00:00
Orbit: 523 x 561 km, 81.2° (Epoch: 30 August)

Date Brightness Start Highest point End Pass type
(mag) Time Alt. Az. Time Alt. Az. Time Alt. Az.
01 Sep 5.9 17:58:27 10° SSE 18:01:09 17° ESE 18:03:49 10° ENE visible
02 Sep 4.3 07:48:36 10° NNW 07:58:23 - S 07:50:42 29° NNW visible
02 Sep 5.8 17:51:37 10° SSE 17:54:25 18° ESE 17:57:10 10° ENE visible
03 Sep 3.2 07:41:52 10° NNW 07:45:57 64° W 07:50:05 10° S visible
03 Sep 5.8 17:44:48 10° SSE 17:47:41 19° ESE 17:50:31 10° ENE visible
04 Sep 3.4 07:35:08 10° NNW 07:39:12 61° W 07:43:19 10° S visible
04 Sep 5.8 17:37:59 10° SSE 17:40:57 20° ESE 17:43:51 10° ENE visible
05 Sep 3.5 07:28:24 10° NNW 07:32:28 57° W 07:36:34 10° S visible
05 Sep 5.8 17:31:09 10° SSE 17:34:12 20° ESE 17:37:11 10° ENE visible
06 Sep 3.6 07:21:40 10° NNW 07:25:42 54° W 07:29:48 10° S visible
06 Sep 5.7 17:24:20 10° SSE 17:27:27 21° ESE 17:30:30 10° NE visible
07 Sep 3.8 07:14:57 10° NNW 07:18:57 51° W 07:23:01 10° S visible
07 Sep 5.6 17:17:31 10° SSE 17:20:42 22° ESE 17:23:50 10° NE visible
08 Sep 3.9 07:08:12 10° NNW 07:12:12 49° W 07:16:14 10° S visible
08 Sep 5.5 17:10:42 10° SSE 17:13:57 23° ESE 17:17:08 10° NE visible
09 Sep 4.0 07:01:29 10° NNW 07:05:26 46° W 07:09:27 10° S visible
09 Sep 5.3 17:03:53 10° SSE 17:07:11 24° ESE 17:10:27 10° NE visible
